Weather observations for the past three days for
Sherman/Denison, Grayson County Airport
Imperial (Metric)
Date Time (cdt) Wind (mph) Vis. (mi.) Weather Sky Cond. Temperature (ºF) Relative Humidity Wind Chill (°F) Heat Index (°F) Pressure Precipitation (in)
Air Dwpt 6 hour altimeter (in) sea level (mb) 1 hr 3 hr 6 hr
Max. Min.
08 07:00 S 7 7.00 Partly Cloudy SCT100 59 55.4 88% 29.98 0.0
08 06:35 S 6 8.00 A Few Clouds FEW100 56.8 54 90% 29.98 0.0
08 06:15 S 9 7.00 Partly Cloudy SCT100 57.6 54.1 88% 29.97 0.0
08 05:55 S 7 9.00 Partly Cloudy SCT110 56.1 53.6 91% 29.96 0.0
08 05:35 S 7 9.00 Partly Cloudy SCT110 57.9 54 87% 29.96 0.0
08 05:15 S 7 8.00 A Few Clouds FEW110 56.3 53.4 90% 29.95 0.0
08 04:55 S 8 9.00 Partly Cloudy SCT130 56.7 53.6 90% 29.95 0.0
08 04:35 S 9 8.00 Fair CLR 56.1 52.9 89% 29.96 0.0
08 04:15 SE 8 9.00 Fair CLR 58.6 53.8 84% 29.95 0.0
08 03:55 S 7 9.00 A Few Clouds FEW190 57 52.9 86% 29.97 0.0
08 03:35 S 8 9.00 Mostly Cloudy BKN190 56.3 52.7 88% 29.97 0.0
08 03:15 S 6 8.00 Partly Cloudy FEW140 SCT180 56.1 52.3 87% 29.98 0.0
08 02:55 S 8 8.00 Fair CLR 55.2 52 89% 29.99 0.0
08 02:35 S 5 9.00 Fair CLR 57.2 52.2 83% 29.98 0.0
08 02:15 S 5 8.00 Fair CLR 56.3 52.3 87% 29.98 0.0
08 01:55 S 7 8.00 Partly Cloudy SCT140 56.5 52.9 88% 30 0.0
08 01:35 S 6 9.00 Mostly Cloudy BKN140 56.7 53.1 88% 30 0.0
08 01:15 S 7 9.00 Partly Cloudy SCT140 58.3 53.2 83% 30 0.0
08 00:55 S 7 9.00 Mostly Cloudy BKN130 59.9 53.4 71.1 59.2 79% 30.01 0.0
08 00:35 S 7 9.00 Overcast OVC130 60.4 53.6 78% 30.01 0.0
08 00:15 S 9 9.00 Partly Cloudy SCT130 59.4 53.6 81% 30.01 0.0
07 23:55 S 7 9.00 A Few Clouds FEW130 60.4 54.1 80% 30.01 0.0
07 23:35 S 7 9.00 A Few Clouds FEW130 60.4 54.3 80% 30.01 0.0
07 23:15 S 7 8.00 Fair CLR 61.2 54.1 78% 30.01 0.0
07 22:55 S 5 9.00 Fair CLR 61.2 53.6 76% 30.01 0.0
07 22:35 S 8 10.00 Fair CLR 62.1 53.2 73% 30.01 0.0
07 22:15 SE 8 10.00 Fair CLR 62.6 51.8 68% 30 0.0
07 21:55 SE 9 10.00 Fair CLR 63.5 48.9 59% 30 0.0
07 21:35 SE 7 9.00 Fair CLR 63.7 48.6 58% 29.99 0.0
07 21:15 SE 7 9.00 Fair CLR 64 49.3 59% 29.99 0.0
07 20:55 SE 7 10.00 Fair CLR 64.8 49.6 58% 29.98 0.0
07 20:35 SE 6 10.00 Fair CLR 65.5 49.3 56% 29.97 0.0
07 20:15 SE 6 9.00 Fair CLR 66.2 49.1 54% 29.97 0.0
07 19:55 SE 5 9.00 A Few Clouds FEW310 67.5 48.4 51% 29.98 0.0
07 19:35 SE 3 9.00 Fair CLR 68.9 46.4 45% 29.98 0.0
07 19:15 E 3 9.00 Fair CLR 68.9 47.1 46% 29.98 0.0
07 18:50 Calm 10.00 Fair CLR 71.6 48.2 44% 29.98 0.0
07 17:50 Calm 10.00 Fair CLR 71.6 44.6 38% 29.99 0.0
07 16:50 Calm 10.00 Fair CLR 71.6 44.6 38% 29.99 0.0
07 15:50 NE 5 9.00 Fair CLR 69.8 46.4 43% 30.01 0.0
07 14:50 Vrbl 3 9.00 Fair CLR 69.8 46.4 43% 30.04 0.0
07 13:50 Vrbl 6 10.00 Fair CLR 68 46.4 46% 30.06 0.0
07 12:50 N 5 10.00 Fair CLR 64.4 44.6 49% 30.13 0.0
07 11:50 N 6 10.00 Fair CLR 62.6 44.6 52% 30.14 0.0
07 10:50 NW 5 10.00 Fair CLR 60.8 50 68% 30.15 0.0
07 08:50 NW 5 10.00 Fair CLR 59 50 72% 30.15 0.0
07 07:50 NW 5 10.00 Fair CLR 51.8 48.2 88% 30.15 0.0
07 06:50 SW 3 10.00 Fair CLR 44.6 44.6 100% 30.13 0.0
07 06:35 SW 5 8.00 Fair CLR 45.1 44.6 98% 43 30.12 0.0
07 06:15 SW 3 8.00 Fair CLR 45.9 45.3 98% 30.11 0.0
07 05:55 W 3 8.00 A Few Clouds FEW340 46.6 46 98% 30.11 0.0
07 05:35 Calm 9.00 Fair CLR 46.9 46.4 98% 30.1 0.0
07 05:15 S 3 9.00 Fair CLR 47.7 47.3 99% 30.09 0.0
07 04:55 Calm 9.00 Fair CLR 48.4 47.8 98% 30.09 0.0
07 04:35 Calm 9.00 Fair CLR 48.9 48.4 98% 30.09 0.0
07 04:15 Calm 9.00 Fair CLR 48.6 47.8 97% 30.09 0.0
07 03:55 Calm 9.00 Fair CLR 49.5 48.4 96% 30.08 0.0
07 03:35 NE 3 9.00 Fair CLR 49.1 48 96% 30.07 0.0
07 03:15 N 5 9.00 Fair CLR 49.3 47.7 94% 48 30.08 0.0
07 02:55 Calm 9.00 Fair CLR 51.6 48.6 89% 30.08 0.0
07 02:35 Calm 9.00 Fair CLR 50 48.6 95% 30.09 0.0
07 02:15 Calm 9.00 Fair CLR 49.3 47.7 94% 30.09 0.0
07 01:55 NE 3 9.00 Fair CLR 50.4 48.6 94% 30.09 0.0
07 01:35 N 3 9.00 Fair CLR 49.6 48.2 95% 30.08 0.0
07 01:15 N 5 9.00 Fair CLR 49.1 47.7 95% 48 30.07 0.0
07 00:55 NE 3 10.00 Fair CLR 49.6 48 59.7 49.6 94% 30.06 0.0
07 00:35 E 5 10.00 Fair CLR 51.3 48.6 91% 30.06 0.0
07 00:15 E 5 10.00 Fair CLR 51.4 48.7 91% 30.07 0.0
06 23:55 E 3 9.00 Fair CLR 52.3 49.3 89% 30.08 0.0
06 23:35 E 3 9.00 Fair CLR 52.2 49.1 89% 30.07 0.0
06 23:15 E 5 9.00 A Few Clouds FEW350 53.1 49.1 87% 30.07 0.0
06 22:55 NE 5 9.00 Fair CLR 53.2 49.1 86% 30.07 0.0
06 22:35 E 3 10.00 A Few Clouds FEW310 54.3 49.1 83% 30.07 0.0
06 22:15 NE 7 10.00 Partly Cloudy SCT036 55.4 49.3 80% 30.07 0.0
06 21:55 NE 8 10.00 Overcast OVC034 57.7 49.5 74% 30.06 0.0
06 21:35 NE 6 10.00 Overcast OVC033 57.7 49.5 74% 30.05 0.0
06 21:15 NE 6 10.00 Overcast OVC033 57.6 49.3 74% 30.05 0.0
06 20:55 NE 8 10.00 Overcast OVC032 57.7 48.9 73% 30.03 0.0
06 20:35 NE 9 10.00 Overcast OVC030 57.7 48.7 72% 30.02 0.0
06 20:15 N 8 9.00 Overcast OVC028 58.1 48.9 72% 30.01 0.0
06 19:55 N 12 9.00 Overcast OVC028 58.5 49.1 71% 30.01 0.0
06 19:35 N 12 9.00 Overcast OVC028 59 49.3 70% 30 0.0
06 19:15 N 13 10.00 Overcast OVC029 59.4 49.5 70% 29.99 0.0
06 18:50 N 14 10.00 Overcast OVC026 59 50 72% 29.99 0.0
06 17:50 N 12 10.00 Overcast OVC030 60.8 50 68% 29.97 0.0
06 16:50 N 12 10.00 Overcast OVC027 62.6 51.8 68% 29.97 0.0
06 15:50 N 9 10.00 Overcast OVC026 62.6 51.8 68% 29.98 0.0
06 14:50 NE 10 10.00 Overcast OVC024 62.6 50 64% 29.98 0.0
06 13:50 N 9 10.00 Overcast OVC012 60.8 50 68% 29.96 0.0
06 12:50 NE 15 9.00 Overcast BKN020 OVC120 55.4 48.2 77% 29.97 0.0
06 11:50 NE 12 9.00 Overcast FEW021 OVC035 55.4 48.2 77% 30 0.0
06 10:50 N 9 10.00 Overcast OVC019 53.6 48.2 82% 30.02 0.0
06 09:50 NE 13 10.00 Overcast BKN018 OVC031 53.6 48.2 82% 30 0.0
06 08:50 N 15 G 20 10.00 Overcast OVC016 53.6 46.4 77% 29.97 0.0
06 07:50 N 10 10.00 Overcast OVC011 51.8 48.2 88% 29.95 0.0
06 06:50 N 12 10.00 Overcast BKN007 OVC012 50 48.2 94% 46 29.93 0.0
06 06:35 N 12 7.00 Overcast BKN007 OVC013 50 48.6 95% 46 29.92 0.0
06 06:15 N 13 6.00 Fog/Mist OVC011 50.2 48.2 93% 29.92 0.0
06 05:55 N 14 6.00 Fog/Mist OVC011 51.3 47.7 88% 29.92 0.0
06 05:35 N 13 10.00 Overcast OVC012 51.8 47.1 84% 29.91 0.0
06 05:15 N 12 10.00 Overcast OVC012 52.3 46.9 82% 29.9 0.0
06 04:55 N 9 10.00 Overcast BKN014 OVC024 52.3 47.1 83% 29.89 0.0
06 04:35 N 12 10.00 Overcast BKN016 OVC025 52.5 47.1 82% 29.88 0.0
06 04:15 N 9 10.00 Overcast BKN017 OVC026 52.9 46.9 80% 29.87 0.0
06 03:55 N 10 10.00 Overcast BKN017 OVC028 53.1 46.8 79% 29.87 0.0
06 03:35 N 13 10.00 Overcast BKN017 OVC029 53.2 46.8 79% 29.86 0.0
06 03:15 N 12 10.00 Overcast FEW018 OVC028 53.4 46.8 78% 29.85 0.0
06 02:55 NE 10 10.00 Overcast OVC029 53.4 46.6 78% 29.85 0.0
06 02:35 NE 12 10.00 Overcast OVC030 53.4 46.2 77% 29.84 0.0
06 02:15 N 13 10.00 Overcast OVC030 54 46.9 77% 29.85 0.0
06 01:55 NE 12 10.00 Overcast OVC030 54.1 47.1 77% 29.85 0.0
06 01:35 N 13 10.00 Overcast BKN032 OVC041 54.3 46.9 76% 29.85 0.0
06 01:15 N 10 10.00 Overcast BKN033 OVC041 54.7 47.1 76% 29.85 0.0
06 00:55 N 10 10.00 Overcast FEW019 OVC033 55 47.7 68.2 55 76% 29.86 0.0
06 00:35 N 12 10.00 Overcast SCT019 OVC033 55.4 48.2 77% 29.86 0.0
06 00:15 N 10 10.00 Overcast FEW018 OVC034 55.4 48.4 77% 29.85 0.0
05 23:55 N 8 10.00 Overcast FEW018 OVC035 55.6 49.1 79% 29.85 0.0
05 23:35 N 13 10.00 Overcast FEW018 OVC037 55.6 49.3 80% 29.85 0.0
05 23:15 N 15 10.00 Overcast FEW017 OVC038 55.9 49.5 79% 29.85 0.0
05 22:55 N 12 10.00 Overcast OVC017 57 51.1 81% 29.84 0.0
05 22:35 N 10 10.00 Overcast OVC016 57.6 51.8 81% 29.85 0.0
05 22:15 N 14 10.00 Overcast OVC015 58.1 52.3 81% 29.84 0.0
05 21:55 N 9 10.00 Overcast OVC015 58.6 53.6 83% 29.82 0.0
05 21:35 N 13 10.00 Overcast OVC015 59 54.1 84% 29.8 0.0
05 21:15 N 10 10.00 Overcast BKN015 OVC190 59.2 54 83% 29.79 0.0
05 20:55 N 10 10.00 Overcast BKN016 BKN190 OVC240 60.1 54.7 82% 29.78 0.0
05 20:35 N 10 10.00 Overcast BKN016 OVC190 61 55.4 82% 29.77 0.0
05 20:15 N 14 8.00 Mostly Cloudy BKN190 62.1 56.3 82% 29.75 0.0
05 19:55 N 14 9.00 Partly Cloudy SCT200 64.6 57.7 79% 29.73 0.0
05 19:35 N 13 G 20 8.00 Partly Cloudy SCT210 65.8 58.8 78% 29.72 0.0
05 19:15 N 10 9.00 Mostly Cloudy BKN210 67.1 59.4 76% 29.73 0.0
05 18:50 N 12 10.00 Fair CLR 68 60.8 78% 29.73 0.0
05 17:50 NW 14 10.00 Fair CLR 75.2 64.4 69% 77 29.7 0.0
05 14:50 SW 15 10.00 Fair CLR 80.6 68 66% 83 29.67 0.0
05 13:50 SW 15 10.00 Fair CLR 80.6 68 66% 83 29.67 0.0
05 12:50 SW 20 G 25 10.00 Fair CLR 80.6 66.2 62% 83 29.67 0.0
05 11:50 S 18 10.00 Fair CLR 77 68 74% 79 29.66 0.0
05 10:50 S 16 G 26 10.00 Fair CLR 77 68 74% 79 29.65 0.0
05 09:50 SW 23 10.00 Fair and Breezy CLR 75.2 68 78% 76 29.66 0.0
05 08:50 S 17 G 30 10.00 Mostly Cloudy SCT020 BKN170 73.4 66.2 78% 29.65 0.0
05 07:50 S 17 10.00 Mostly Cloudy BKN170 BKN250 69.8 66.2 88% 29.64 0.0
Date Time (cdt) Wind (mph) Vis. (mi.) Weather Sky Cond. Air Dwpt Max. Min. Relative Humidity Wind Chill (°F) Heat Index (°F) altimeter (in) sea level (mb) 1 hr 3 hr 6 hr
6 hour
Temperature (ºF) Pressure Precipitation (in)